This is the latest recevied weather packets stored in our database for station/object K2CAT. If no packets are shown the sender has not sent any weather packets the latest 10 day(s).
| Time | Temp. | Humidity | Pressure | Rain* | Wind** | Luminosity | Snow |
|---|---|---|---|---|---|---|---|
| 1777479325 | 17.78° C | 58% | 1013.7 hPa | 0 mm | - | 201 W/m² | - |
| 1777479021 | 17.78° C | 54% | 1013.7 hPa | 0 mm | - | 199 W/m² | - |
| 1777478718 | 17.22° C | 55% | 1013.8 hPa | 0 mm | - | 220 W/m² | - |
| 1777478414 | 17.78° C | 55% | 1013.5 hPa | 0 mm | - | 256 W/m² | - |
| 1777478111 | 17.78° C | 57% | 1013.5 hPa | 0 mm | - | 262 W/m² | - |
| 1777477808 | 17.78° C | 56% | 1013.9 hPa | 0 mm | - | 356 W/m² | - |
| 1777477503 | 17.22° C | 58% | 1013.8 hPa | 0 mm | - | 232 W/m² | - |
| 1777477200 | 16.67° C | 58% | 1013.8 hPa | 0 mm | - | 182 W/m² | - |
| 1777476896 | 16.67° C | 56% | 1014.1 hPa | 0 mm | - | 135 W/m² | - |
| 1777476594 | 17.22° C | 57% | 1013.8 hPa | 0 mm | - | 135 W/m² | - |
| 1777476290 | 16.67° C | 60% | 1013.7 hPa | 0 mm | - | 120 W/m² | - |
| 1777475985 | 16.67° C | 57% | 1014 hPa | 0 mm | - | 175 W/m² | - |
| 1777475682 | 17.22° C | 58% | 1013.8 hPa | 0 mm | - | 197 W/m² | - |
| 1777475379 | 17.22° C | 58% | 1013.9 hPa | 0 mm | - | 215 W/m² | - |
| 1777475079 | 17.22° C | 57% | 1013.8 hPa | 0 mm | - | 239 W/m² | - |
| 1777474776 | 17.22° C | 57% | 1013.6 hPa | 0 mm | - | 245 W/m² | - |
| 1777474472 | 17.22° C | 58% | 1013.9 hPa | 0 mm | - | 283 W/m² | - |
| 1777474168 | 17.22° C | 57% | 1014 hPa | 0 mm | - | 363 W/m² | - |
| 1777473866 | 17.22° C | 57% | 1014 hPa | 0 mm | - | 339 W/m² | - |
| 1777473563 | 16.67° C | 60% | 1014.1 hPa | 0 mm | - | 290 W/m² | - |
| 1777473259 | 16.67° C | 58% | 1013.9 hPa | 0 mm | - | 272 W/m² | - |
| 1777472955 | 16.67° C | 56% | 1014 hPa | 0 mm | - | 216 W/m² | - |
| 1777472652 | 16.11° C | 57% | 1014 hPa | 0 mm | - | 299 W/m² | - |
| 1777472348 | 16.67° C | 56% | 1013.9 hPa | 0 mm | - | 282 W/m² | - |
| 1777472046 | 16.11° C | 58% | 1014.1 hPa | 0 mm | - | 224 W/m² | - |
* Rain latest hour (hover to see other rain measurements)
** Current wind speed in m/s (hover to see current wind gust speed)